Location: Proctor
(47.8934°N, 114.3048°W)
Time: 10:15:21
(UTC+00:00)

Transit 4A - Pass Details

Date: 02 July 2024
Orbit: 870 x 973 km, 66.8° (Epoch: 13 July)

Event Time Altitude Azimuth Distance (km) Brightness Sun altitude
Rises 04:36:00 0° 228° (SW) 3,455 10.9 -7.8°
Reaches altitude 10° 04:38:32 10° 233° (SW) 2,515 10.2 -8.1°
Maximum altitude 04:44:12 54° 311° (NW) 1,048 8.7 -8.7°
Drops below altitude 10° 04:49:57 10° 29° (NNE) 2,537 10.5 -9.4°
Sets 04:52:31 0° 34° (NE) 3,488 11.1 -9.6°
